Change the Weather History Date:

Thursday, April 25, 2013

  Actual Average Record
Temperature  
Mean Temperature 65 °F -  
Max Temperature 86 °F 76 °F 89 °F (2001)
Min Temperature 46 °F 52 °F 42 °F (2008)
Growing Degree Days 15 (Base 50)    
Moisture  
Dew Point 26 °F    
Average Humidity 23    
Maximum Humidity 46    
Minimum Humidity 8    
Precipitation  
Precipitation 0.00 in - - ()
Sea Level Pressure  
Sea Level Pressure 29.85 in    
Wind  
Wind Speed 7 mph (South)    
Max Wind Speed 15 mph    
Max Gust Speed 16 mph    
Visibility 10 miles    
Events      
Averages and records for this station are not official NWS values.
T = Trace of Precipitation, MM = Missing Value Source: NWS Daily Summary

Daily Weather History Graph

Daily Weather History Graph

Search for Another Location

Airport or City:

Trip Planner

Search our weather history database for the weather conditions in past years. The results will help you decide how hot, cold, wet, or windy it might be!

Date:

Astronomy

Apr. 25, 2013 Rise Set
Actual Time 6:05 AM PDT 7:32 PM PDT
Civil Twilight 5:38 AM PDT 7:59 PM PDT
Nautical Twilight 5:05 AM PDT 8:32 PM PDT
Astronomical Twilight 4:32 AM PDT 9:06 PM PDT
Moon 7:50 PM PDT (4/25) 5:51 AM PDT (4/25)
Length of Visible Light 14h 21m
Length of Day
13h 27m
Full, 100% of the Moon is Illuminated
Apr 25
Full
Apr 25
Full
May 2
Last Quarter
May 9
New
May 17
First Quarter

Hourly Weather History & Observations

Time (PDT) Temp. Dew Point Humidity Pressure Visibility Wind Dir Wind Speed Gust Speed Precip Events Conditions
12:56 AM 61.0 °F 26.1 °F 26% 29.80 in 10.0 mi South 8.1 mph - N/A   Clear
1:56 AM 55.9 °F 25.0 °F 30% 29.81 in 10.0 mi WSW 5.8 mph - N/A   Clear
2:56 AM 57.0 °F 28.0 °F 33% 29.79 in 10.0 mi SSW 9.2 mph - N/A   Clear
3:56 AM 55.9 °F 33.1 °F 42% 29.80 in 10.0 mi SSW 9.2 mph - N/A   Clear
4:56 AM 51.1 °F 30.0 °F 44% 29.81 in 10.0 mi SSW 8.1 mph - N/A   Clear
5:56 AM 46.9 °F 27.0 °F 46% 29.83 in 10.0 mi WNW 5.8 mph - N/A   Clear
6:56 AM 53.1 °F 30.0 °F 41% 29.85 in 9.0 mi SE 6.9 mph - N/A   Partly Cloudy
7:56 AM 62.1 °F 30.9 °F 31% 29.87 in 10.0 mi SE 3.5 mph - N/A   Clear
8:56 AM 69.1 °F 28.0 °F 22% 29.88 in 10.0 mi South 8.1 mph - N/A   Clear
9:56 AM 72.0 °F 28.9 °F 20% 29.90 in 10.0 mi ESE 5.8 mph - N/A   Clear
10:56 AM 75.9 °F 23.0 °F 14% 29.90 in 10.0 mi East 5.8 mph - N/A   Clear
11:56 AM 79.0 °F 17.1 °F 10% 29.88 in 10.0 mi SSW 3.5 mph - N/A   Clear
12:56 PM 82.0 °F 17.1 °F 9% 29.86 in 10.0 mi South 6.9 mph - N/A   Partly Cloudy
1:56 PM 82.9 °F 15.1 °F 8% 29.87 in 10.0 mi SE 8.1 mph - N/A   Partly Cloudy
2:56 PM 84.0 °F 15.1 °F 8% 29.85 in 10.0 mi ESE 6.9 mph - N/A   Partly Cloudy
3:56 PM 84.0 °F 17.1 °F 8% 29.83 in 10.0 mi SSW 4.6 mph 16.1 mph N/A   Partly Cloudy
4:56 PM 84.0 °F 21.0 °F 10% 29.82 in 10.0 mi West 6.9 mph - N/A   Partly Cloudy
5:56 PM 82.9 °F 26.1 °F 13% 29.83 in 10.0 mi WSW 8.1 mph - N/A   Partly Cloudy
6:56 PM 80.1 °F 30.0 °F 16% 29.83 in 10.0 mi West 15.0 mph - N/A   Clear
7:56 PM 75.0 °F 30.9 °F 20% 29.83 in 10.0 mi West 12.7 mph - N/A   Clear
8:56 PM 71.1 °F 30.9 °F 23% 29.87 in 10.0 mi South 4.6 mph - N/A   Clear
9:56 PM 69.1 °F 30.9 °F 24% 29.90 in 10.0 mi SSW 8.1 mph - N/A   Clear
10:56 PM 66.9 °F 32.0 °F 27% 29.91 in 10.0 mi South 8.1 mph - N/A   Clear
11:56 PM 64.9 °F 32.0 °F 29% 29.94 in 10.0 mi South 6.9 mph - N/A   Clear